STARLINK-5373, 55490

Orbit data source: Space-Track

STARLINK-5373, 55490 is a payload satellite owned by SpaceX/Seattle (US) in LEO that was launched on Thu, 02 Feb 2023 UTC via an FALCON 9 launch vehicle from the Air Force Eastern Test Range (AFETR). Payload-class satellites include a variety of spacecraft equipped with specific instruments for various scientific and technological missions. These include communications satellites like Starlink; space stations such as the ISS; scientific satellites like the Hubble; Earth observation satellites from companies like Planet Labs, Umbra, and HawkEye 360; GPS; miniature CubeSats for education and research; and military/defense satellites.

Loading next visibility...
Identifier
55490, 2023-015AT
Orbit
LEO
Country
Flag of USUS
Related business
Manufacturer
SpaceX/Seattle
Mission
Operational Commercial Communications
Bus & Motor
STARLINK, Unknown motor
Mass
305 kg wet, ~290 kg dry
Launch date (UTC)
2023-02-02 (3 years ago)
Launch vehicle
FALCON 9
Launch site
Air Force Eastern Test Range (AFETR)
Object type
Payload
Rocket body
Debris
Shape & HBR
Box + 1 Pan, 10.1 m
Radar Cross Section
13.562 m², Large (>1 m²)

Expand to show TLE details & history
Last TLE update: 10 hours ago

TLE from 10 hours ago
0 STARLINK-5373
1 55490U 23015AT  26035.64456340  .00000684  00000-0  65725-4 0  9999
2 55490  43.0010 158.4825 0001206 270.7577  89.3127 15.02539008165634
Epoch: 2026-02-04T15:28Z
TLE epoch observation values (Epoch: 2026-02-04T15:28:10.277Z)
Latitude
-0.00004°
Longitude
151.63146°
Altitude
558.838 km
Speed
7.584 km/s
True Right ascension
10h 33m 55s
True Declination
0° 00' 00"
Sunlit
Object was in full shadow at epoch
Visualization orbit readout
Latitude
Unknown
Longitude
Unknown
Altitude
Unknown
Speed
Unknown
Apparent Right ascension
Unknown
Apparent Declination
Unknown
Sunlit
N/A
Visualization observer readout
Local Sidereal Time
03:02:47
Azimuth
Unknown
Elevation
Unknown
Doppler factor
Unknown
Orbital elements
Apogee altitude
561.831 km
Perigee altitude
560.157 km
Semi-major axis
6,939.131 km
Eccentricity
0.00012
Inclination
43.001°
RAAN
158.4825°
Arg. of periapsis
270.7577°
True anomaly
89.32652°
Mean anomaly
89.3127°
Eccentric anomaly
89.31961°
Mean motion
3.75479 °/min
Orbital period
95.88 mins
BSTAR
0.000065725
Loading maneuver chart data...
Computing Atmospheric mass density...
Loading historical data...
Loading historical data...
Loading historical data...
Loading historical data...
Loading historical data...
Loading historical data...
Loading historical data...

Documentation

Showing up to 5 results
|